COSMOS 2251 DEB

Satellite information

Favourite Embed

Satellite Type and Status

DEBRISIN ORBIT

Key statistics

Satellite COSMOS 2251 DEB at a glance.

Uptime

11647

Days in orbit

Revolutions

≈ 14.4

Per day

Orbit

LEO

Low Earth Orbit

Inclination

74.0

Latest

Satellite identification and parameters

Extended collection of information and parameters for COSMOS 2251 DEB.

Object identification

Identified? True

Debris? True

Object name: COSMOS 2251 DEB

International designator: 1993-036NA

Object number (NORAD): 34304

Object ID (CCSDS): 34304

Country: COMMONWEALTH OF INDEPENDENT STATES (CIS)

Current information (Y/N): Y

RCS size: SMALL

Orbital parameters

Period: 100.293 minutes

Inclination: 74.0142 deg

SMA: 7150.587 km

Apoapsis: 868.077 km

Periapsis: 676.826 km

RAAN: 169.1388 deg

Eccentricy: 0.0133731

Argument of periapsis: 357.9591 deg

Mean anomaly: 55.8424 deg

Mean motion: 14.35787721 rev/day

Mean motion (dot): 0.00003206 rev/day2

B* drag term: 0.0010092 1/REarth

Two-line elements (TLE)

Creation date: May 6, 2025, 3:54 a.m.

Reference frame: TEME

Reference center: EARTH

Epoch: May 5, 2025, 9:22 p.m. UTC

TLE line 0: 0 COSMOS 2251 DEB

TLE line 1: 1 34304U 93036NA 25125.89095822 .00003206 00000-0 10092-2 0 9998

TLE line 2: 2 34304 74.0142 169.1388 0133731 357.9591 55.8424 14.35787721841250

Live tracking on map

Real-time ground track for satellite COSMOS 2251 DEB.

In-orbit conjunctions

A list of the most updated potential collisions computed for object COSMOS 2251 DEB.

Target Orbit TCA Probability of collision Miss distance Type
CZ-4C R/B LEO 2025-05-06 02:48:11 0.0001126672 338.0 (m) ROCKET BODY
GEOS 3 SSO 2025-03-04 01:30:26 0.0001172817 737.0 (m) PAYLOAD
CZ-6A DEB LEO 2024-11-20 17:19:56 0.0004123644 896.0 (m) DEBRIS
CZ-6A DEB LEO 2024-11-05 00:18:16 0.0001755191 599.0 (m) DEBRIS
SL-3 R/B LEO 2024-09-17 15:49:40 0.0002247239 140.0 (m) ROCKET BODY

Associated space launch

Military communications satellite. Destroyed in a collision with Iridium 33.

COSMOS 2251 DEB was lifted into orbit during the mission ‘Kosmos-3M | Strela-2M 51’, on board a Kosmos-3M space rocket.

The launch took place on June 16, 1993, 4:17 a.m. from 132/1 (132L).

For more information about the launch, click the button.

Launch to space Kosmos-3M | Strela-2M 51
Kosmos-3M | Strela-2M 51

Agency: N/A

Status: Launch Successful

Launch date: June 16, 1993, 4:17 a.m. UTC

Rocket: Kosmos-3M

Launch pad: 132/1 (132L)

Location: Plesetsk Cosmodrome, Russian Federation

...

Latest news about this satellite

There are no fresh news available about this satellite. Check back as we update our databases every day.


Newsletter sign-up

Weekly statistics, charts and insights to help you stay on top of the space industry.